RH
15 17 21 23 23 23 22 17 9 10 15 16 15 18 20 26 37 46 38 28 14 7 5 4 4 5 4 4 4 4 4 5 6 9 16 16 8 8
24 24 24 25 24 24 20 10 10 13 17 16 16 19 22 26 40 54 53 47 38 23 15 7 5 5 5 4 4 4 4 4 6 7 8 19 20 11
24 25 26 26 25 21 11 10 13 17 19 17 24 29 26 30 47 56 56 55 53 45 34 23 10 6 5 5 4 5 5 5 5 6 8 11 23 23
26 26 27 27 22 12 11 14 16 20 18 18 34 47 46 42 48 52 52 49 41 38 34 28 17 9 7 6 5 5 5 5 5 5 7 10 15 25
55 48 39 25 14 15 16 20 22 20 18 19 36 50 48 45 42 38 32 27 26 22 21 21 19 13 10 8 7 6 5 6 5 6 6 9 11 17
30 24 20 18 18 20 22 22 21 20 24 32 47 51 60 58 31 18 16 15 13 15 16 17 18 16 13 11 9 7 6 6 6 6 6 8 10 12
22 23 22 22 22 22 22 22 22 28 46 56 65 77 76 30 11 7 8 8 9 11 14 17 15 17 16 14 12 9 8 7 6 6 7 7 9 12
60 32 24 22 23 23 24 27 36 57 77 83 78 50 13 8 7 7 7 6 7 8 9 10 14 19 19 17 14 12 10 9 8 7 7 7 7 10
78 81 93 91 86 73 77 54 67 87 84 69 33 11 8 8 9 8 8 7 7 10 10 14 18 21 21 19 17 15 13 11 9 8 8 7 7 8
69 62 57 70 75 82 89 82 89 43 35 23 14 11 9 11 10 10 10 10 12 14 16 18 25 28 23 22 20 18 15 13 11 10 9 8 8 9
57 40 36 35 40 44 45 40 33 25 21 18 16 12 11 14 12 12 14 13 16 19 22 26 30 30 24 23 22 21 18 15 13 11 10 10 10 10
60 40 37 17 27 40 35 35 32 30 26 21 16 14 16 17 14 14 18 19 19 17 33 29 32 32 29 27 24 23 20 17 14 13 12 11 12 12
75 74 77 28 34 22 24 25 27 29 26 23 20 16 20 22 21 19 33 27 26 19 38 30 26 34 36 35 32 27 21 16 15 14 14 13 14 14
83 91 88 78 36 26 26 21 25 28 28 25 29 37 54 66 30 24 27 32 32 33 37 54 44 32 36 38 39 37 32 28 23 19 25 31 36 38
92 93 92 93 86 95 36 28 34 40 36 41 44 51 77 81 88 56 58 68 45 46 49 50 80 78 74 46 41 44 44 46 50 55 52 45 52 64
98 96 90 100 91 98 99 93 77 96 91 83 84 88 92 92 95 96 90 96 93 68 65 69 93 95 87 90 75 53 55 57 65 72 74 78 81 87
97 98 96 91 88 97 99 98 98 96 91 93 90 83 92 97 100 97 98 94 94 97 96 96 92 99 95 98 84 84 93 94 95 94 88 84 85 90
99 98 98 98 94 97 97 97 100 99 94 82 92 85 98 97 100 100 98 96 96 96 98 99 98 95 95 92 93 98 97 96 97 100 97 98 98 98
98 99 98 98 97 99 98 100 99 98 99 98 97 98 98 98 96 100 100 100 98 98 97 97 99 96 95 100 97 100 97 94 95 98 92 96 97 98
94 94 95 94 97 97 98 96 99 96 98 97 98 98 98 98 98 96 96 98 100 98 95 98 98 98 98 98 97 99 98 96 100 97 93 91 91 100
56 79 88 88 91 93 94 95 96 94 94 92 89 96 96 97 97 97 97 98 96 97 97 98 98 98 98 99 99 98 98 96 95 96 94 88 82 90
56 47 45 52 65 90 94 89 90 91 90 85 55 47 68 95 89 81 76 73 84 88 96 97 98 98 97 98 98 98 97 96 94 94 96 94 92 94
44 47 42 43 42 48 65 84 95 94 90 88 67 54 64 88 86 97 98 94 98 98 98 100 99 97 98 98 98 97 97 96 96 96 98 95 92 87
Wind_Speed
50 48 45 43 41 39 36 34 33 30 30 27 25 25 25 25 23 20 18 17 19 20 20 20 20 18 16 14 13 12 10 11 11 11 14 13 12 13
53 51 49 47 45 42 39 37 35 33 32 30 29 28 27 27 26 23 22 21 22 22 22 22 22 22 20 19 17 15 14 12 12 12 12 14 13 13
57 54 52 50 47 44 42 39 37 36 36 33 31 29 28 28 27 26 26 25 26 26 25 25 25 25 23 23 22 19 18 16 14 14 14 14 15 13
58 56 54 52 49 46 43 41 40 40 38 36 33 32 30 30 30 32 32 32 31 31 29 29 28 27 26 25 26 23 22 20 17 17 16 16 16 16
60 58 56 53 51 48 45 44 43 42 41 39 37 35 34 34 34 35 36 35 34 33 32 31 30 29 28 28 28 27 26 24 22 21 19 19 19 19
59 57 56 54 52 50 47 46 46 45 44 41 39 37 37 38 39 38 39 37 38 35 34 34 32 31 31 31 31 30 30 27 26 26 24 22 22 23
56 55 55 54 53 52 50 49 49 47 45 42 39 41 42 44 42 42 40 40 38 37 37 37 35 34 33 33 33 34 34 31 30 30 29 27 26 25
54 53 53 54 55 53 54 52 50 48 48 49 42 44 46 43 41 41 41 39 38 39 39 40 38 35 35 34 35 36 34 34 34 33 33 32 31 30
58 57 57 58 56 57 57 58 59 52 46 45 49 46 44 43 44 44 41 41 39 40 39 39 36 37 37 37 37 36 36 36 36 36 36 36 36 35
64 62 63 63 62 60 56 52 47 52 53 52 50 48 46 46 46 46 45 42 41 36 38 39 37 38 39 39 39 38 38 38 38 39 40 40 40 39
68 70 69 66 65 65 63 59 58 56 54 53 51 50 49 49 48 49 46 43 43 40 40 41 40 40 42 41 41 41 40 41 41 42 43 43 43 43
69 71 69 70 68 68 67 63 63 59 57 55 53 51 49 50 52 50 49 46 45 45 42 44 44 44 45 44 42 44 44 44 44 45 46 47 47 47
73 75 75 75 71 69 69 67 63 62 59 57 56 54 51 53 54 54 54 51 48 47 45 49 48 47 49 46 47 47 48 48 48 48 49 51 51 49
76 73 78 73 72 71 69 69 66 66 64 62 61 58 59 58 56 58 56 55 52 52 52 50 52 51 52 54 51 51 52 52 52 53 55 54 55 55
83 81 69 69 74 71 73 72 70 70 69 67 61 61 60 62 61 62 66 66 60 56 57 56 54 56 56 57 59 57 56 55 57 58 60 61 60 61
69 73 70 72 78 78 76 74 75 71 68 69 68 71 67 67 66 67 68 69 64 65 62 64 63 60 57 57 61 62 59 61 61 63 64 63 64 65
74 77 75 70 67 68 72 79 81 75 73 74 80 71 70 71 66 70 72 69 66 62 65 65 60 60 65 64 62 62 66 67 68 67 66 67 68 71
69 73 76 69 65 70 58 62 70 71 70 68 70 73 75 73 70 72 72 74 71 62 65 63 66 70 66 64 62 63 65 70 68 64 68 69 71 71
73 74 73 71 63 58 56 52 60 57 55 60 65 84 84 85 84 73 76 72 75 71 66 68 72 76 72 70 71 66 66 67 71 72 70 70 72 74
89 85 82 75 76 71 64 60 57 55 54 52 51 50 57 63 67 63 56 61 69 73 71 74 71 72 73 70 69 71 70 69 72 74 76 76 74 77
83 84 84 81 83 82 79 81 78 73 76 72 69 70 63 58 59 61 56 56 60 68 69 70 65 63 64 69 76 76 72 72 73 77 74 72 73 73
79 82 83 82 83 80 76 80 80 79 74 70 67 64 66 64 64 68 71 68 66 69 70 65 65 66 72 72 67 67 68 70 71 71 70 71 74 76
79 81 82 81 82 81 80 81 76 72 75 76 71 67 67 65 66 68 68 68 69 68 66 66 70 75 75 76 76 77 77 77 74 72 74 73 75 77
Wind_Direction
227 230 232 235 239 241 245 250 247 246 245 247 250 247 245 244 246 250 257 263 265 264 265 266 268 272 273 276 280 287 298 314 327 337 355 356 357 1
230 233 235 237 240 243 247 245 242 243 243 246 246 247 246 244 245 250 257 262 266 268 270 268 266 267 269 269 270 272 282 293 308 318 324 343 343 346
231 234 237 239 242 245 243 239 240 241 242 244 245 247 247 245 248 254 259 263 268 270 270 270 268 264 263 266 270 270 274 282 292 301 309 313 331 330
231 234 237 240 243 241 239 240 240 240 242 244 244 247 247 248 252 257 261 263 265 265 265 267 266 264 263 262 266 270 271 274 280 285 293 298 305 318
230 233 236 237 236 236 236 238 239 242 245 243 245 249 251 253 257 259 262 264 265 264 264 264 264 264 263 263 264 267 269 269 272 279 283 287 290 299
230 232 234 234 236 236 236 237 239 243 245 246 248 251 255 258 263 264 262 263 263 263 263 262 262 262 262 262 264 265 267 267 268 271 275 280 284 287
230 233 235 237 237 237 237 238 241 244 246 248 249 252 257 262 261 259 260 260 262 263 262 261 262 260 260 262 263 263 264 267 266 269 271 275 278 283
237 237 238 239 239 240 242 242 243 245 246 249 249 257 259 259 259 258 257 259 260 260 262 263 261 261 261 261 263 265 267 268 268 269 272 275 278 280
237 239 241 244 247 244 244 244 244 245 247 247 251 254 256 257 256 256 258 258 259 260 262 261 263 262 261 261 262 264 266 266 268 270 272 273 276 279
236 238 242 243 245 247 250 251 247 250 250 252 254 253 254 254 254 254 255 257 262 261 258 259 259 257 261 261 262 263 265 267 268 271 273 275 278 280
232 237 240 242 244 246 247 248 250 250 251 252 253 254 254 255 254 255 258 259 261 259 258 261 262 259 261 260 261 262 264 265 267 268 271 273 275 277
236 237 243 243 242 245 247 247 249 250 250 252 253 253 254 252 253 254 256 257 260 259 258 260 260 261 262 262 262 263 263 264 266 268 269 271 273 276
241 242 246 241 246 244 246 248 249 250 249 249 250 250 250 254 255 255 256 259 261 260 257 261 260 261 264 263 264 264 265 266 266 268 269 271 275 275
241 241 245 243 243 245 246 248 248 250 251 248 249 249 251 249 253 258 257 257 257 259 258 259 263 264 266 266 266 266 267 268 269 270 271 273 275 277
242 245 240 245 247 246 243 245 246 248 250 248 249 249 250 253 252 252 254 256 257 258 260 260 263 263 264 267 268 268 268 269 270 272 273 275 278 280
230 236 241 240 243 244 244 244 242 252 253 249 255 254 253 253 258 252 253 258 260 258 260 262 265 263 265 267 267 267 270 271 272 274 275 275 277 278
236 236 235 238 239 241 244 246 245 253 253 252 258 250 253 253 259 260 258 257 260 263 261 264 264 264 268 271 264 263 272 271 274 275 275 276 278 280
229 231 232 234 233 232 234 239 243 248 249 253 250 254 256 255 259 259 258 260 260 259 259 262 263 264 265 268 265 273 271 267 272 274 273 274 277 280
234 227 231 235 231 229 226 234 239 242 247 246 247 247 251 256 255 258 257 256 257 261 259 259 262 262 260 263 268 266 269 272 272 274 272 273 276 278
257 255 249 245 237 237 230 231 233 236 238 238 246 251 249 251 249 252 258 256 252 254 259 259 265 262 263 263 262 263 271 270 270 272 272 274 277 278
251 255 259 260 260 260 259 252 254 253 254 263 264 263 264 261 258 254 256 262 264 258 261 260 260 260 262 262 263 265 268 270 272 273 276 277 276 276
248 250 252 255 257 257 257 259 261 263 263 263 262 262 265 261 262 260 266 267 264 264 261 258 258 264 264 261 261 265 268 270 272 274 274 274 274 274
247 248 249 250 252 254 254 256 256 254 256 258 258 255 252 252 254 254 254 257 258 257 261 263 264 260 261 261 263 269 273 274 276 277 277 278 278 279